User: anonymous   Login
Location: Kempten
(47.7167°N, 10.3167°E)
Time: 22:58:01
(UTC+02:00)
Language:

STARLINK-2753 - Orbit

View from above orbital plane
View from above orbital plane
View from above satellite
View from above satellite

Ground track
Ground track

The orbit data is extracted from the following two-line orbital elements,

1 48696U 21044BL  21271.46377855 -.00006789  00000-0 -43726-3 0  9999
2 48696  53.0664 178.4804 0001796  58.6466 301.4699 15.06401562 19472
Epoch (UTC): 28 September 2021 11:07:50
Eccentricity: 0.0001796
inclination: 53.0664°
perigee height: 546 km
apogee height: 548 km
right ascension of ascending node: 178.4804°
argument of perigee: 58.6466°
revolutions per day: 15.06401562
mean anomaly at epoch: 301.4699°
orbit number at epoch: 1947

The dashed part of the orbit path shows where the satellite is in the earth's shadow,  

DLR